TimeCST,TemperatureF,Dew PointF,Humidity,Sea Level PressureIn,VisibilityMPH,Wind Direction,Wind SpeedMPH,Gust SpeedMPH,PrecipitationIn,Events,Conditions,WindDirDegrees,DateUTC
12:15 AM,49.1,22.1,35,29.82,10.0,WSW,13.8,-,N/A,,Clear,240,2014-02-14 06:15:00
12:35 AM,45.7,22.1,39,29.82,10.0,West,12.7,-,N/A,,Clear,260,2014-02-14 06:35:00
12:55 AM,45.1,22.3,40,29.83,10.0,West,9.2,-,N/A,,Clear,260,2014-02-14 06:55:00
1:15 AM,44.6,23.0,43,29.83,10.0,West,11.5,-,N/A,,Clear,270,2014-02-14 07:15:00
1:35 AM,43.0,23.0,45,29.83,10.0,WNW,8.1,-,N/A,,Clear,290,2014-02-14 07:35:00
1:55 AM,41.0,22.6,48,29.84,10.0,West,11.5,-,N/A,,Clear,280,2014-02-14 07:55:00
2:15 AM,43.3,24.3,47,29.85,10.0,West,9.2,-,N/A,,Clear,270,2014-02-14 08:15:00
2:35 AM,43.0,24.6,48,29.84,10.0,West,8.1,-,N/A,,Clear,270,2014-02-14 08:35:00
2:55 AM,43.0,24.4,48,29.83,10.0,West,8.1,-,N/A,,Clear,280,2014-02-14 08:55:00
3:15 AM,46.4,23.7,41,29.83,10.0,West,10.4,-,N/A,,Clear,280,2014-02-14 09:15:00
3:35 AM,42.8,23.7,47,29.83,10.0,West,12.7,-,N/A,,Clear,270,2014-02-14 09:35:00
3:55 AM,41.5,23.5,49,29.83,10.0,West,11.5,-,N/A,,Clear,260,2014-02-14 09:55:00
4:15 AM,41.9,23.0,47,29.83,10.0,West,10.4,-,N/A,,Clear,260,2014-02-14 10:15:00
4:35 AM,39.7,22.8,51,29.84,10.0,West,9.2,-,N/A,,Clear,270,2014-02-14 10:35:00
4:55 AM,38.5,22.3,52,29.86,10.0,West,12.7,-,N/A,,Clear,270,2014-02-14 10:55:00
5:15 AM,36.9,22.5,56,29.86,10.0,West,11.5,-,N/A,,Clear,260,2014-02-14 11:15:00
5:35 AM,37.2,22.1,54,29.87,10.0,West,11.5,-,N/A,,Clear,260,2014-02-14 11:35:00
5:55 AM,35.8,21.7,57,29.88,10.0,West,10.4,-,N/A,,Clear,270,2014-02-14 11:55:00
6:15 AM,34.9,21.0,57,29.89,10.0,WNW,5.8,-,N/A,,Clear,300,2014-02-14 12:15:00
6:35 AM,33.1,20.3,59,29.91,10.0,NW,6.9,-,N/A,,Clear,310,2014-02-14 12:35:00
6:55 AM,33.3,21.2,61,29.91,10.0,NW,9.2,-,N/A,,Clear,310,2014-02-14 12:55:00
7:15 AM,33.8,20.7,59,29.93,10.0,NW,9.2,-,N/A,,Clear,310,2014-02-14 13:15:00
7:35 AM,39.2,23.4,53,29.97,10.0,North,16.1,-,N/A,,Clear,10,2014-02-14 13:35:00
7:55 AM,44.2,23.9,45,29.98,10.0,North,-9999.0,-,N/A,,Clear,0,2014-02-14 13:55:00
8:15 AM,43.7,24.6,47,30.00,10.0,North,15.0,-,N/A,,Clear,10,2014-02-14 14:15:00
8:35 AM,44.4,25.7,48,30.02,10.0,North,17.3,-,N/A,,Clear,10,2014-02-14 14:35:00
8:55 AM,45.9,27.7,49,30.04,10.0,NNE,19.6,28.8,N/A,,Clear,20,2014-02-14 14:55:00
9:15 AM,46.4,27.5,48,30.05,10.0,North,21.9,29.9,N/A,,Clear,10,2014-02-14 15:15:00
9:35 AM,46.9,27.5,47,30.06,10.0,North,23.0,35.7,N/A,,Clear,10,2014-02-14 15:35:00
9:55 AM,46.9,27.7,47,30.08,10.0,NNE,25.3,-,N/A,,Clear,20,2014-02-14 15:55:00
10:15 AM,47.7,28.2,47,30.10,10.0,NNE,25.3,31.1,N/A,,Clear,20,2014-02-14 16:15:00
10:35 AM,48.0,28.8,47,30.12,10.0,NNE,24.2,29.9,N/A,,Clear,20,2014-02-14 16:35:00
10:55 AM,49.1,28.9,46,30.13,10.0,NNE,19.6,26.5,N/A,,Clear,20,2014-02-14 16:55:00
11:15 AM,50.2,27.9,42,30.15,10.0,NNE,19.6,27.6,N/A,,Clear,20,2014-02-14 17:15:00
11:35 AM,51.8,27.7,39,30.14,10.0,North,19.6,27.6,N/A,,Clear,10,2014-02-14 17:35:00
11:55 AM,52.2,26.8,37,30.12,10.0,NNE,23.0,28.8,N/A,,Clear,20,2014-02-14 17:55:00
12:15 PM,51.4,26.8,38,30.12,10.0,NNE,21.9,32.2,N/A,,Clear,30,2014-02-14 18:15:00
12:35 PM,52.0,25.7,36,30.12,10.0,NNE,20.7,29.9,N/A,,Clear,20,2014-02-14 18:35:00
12:55 PM,52.7,24.8,34,30.12,10.0,NNE,17.3,23.0,N/A,,Clear,20,2014-02-14 18:55:00
1:15 PM,53.6,23.9,32,30.11,10.0,NNE,17.3,24.2,N/A,,Clear,30,2014-02-14 19:15:00
1:35 PM,53.6,22.8,30,30.11,10.0,NNE,19.6,23.0,N/A,,Clear,30,2014-02-14 19:35:00
1:55 PM,54.7,22.3,28,30.10,10.0,NE,17.3,27.6,N/A,,Clear,40,2014-02-14 19:55:00
2:15 PM,53.6,21.9,29,30.10,10.0,ENE,15.0,-,N/A,,Clear,60,2014-02-14 20:15:00
2:35 PM,53.4,21.0,28,30.09,10.0,NNE,9.2,19.6,N/A,,Clear,30,2014-02-14 20:35:00
2:55 PM,55.4,19.9,25,30.08,10.0,NE,13.8,17.3,N/A,,Clear,40,2014-02-14 20:55:00
3:15 PM,55.8,19.4,24,30.08,10.0,NNE,11.5,19.6,N/A,,Clear,30,2014-02-14 21:15:00
3:35 PM,56.3,19.2,24,30.08,10.0,ENE,11.5,16.1,N/A,,Clear,60,2014-02-14 21:35:00
3:55 PM,56.5,19.2,23,30.08,10.0,NE,10.4,-,N/A,,Clear,40,2014-02-14 21:55:00
4:15 PM,56.1,18.9,23,30.09,10.0,ENE,10.4,18.4,N/A,,Clear,70,2014-02-14 22:15:00
4:35 PM,55.2,18.7,24,30.08,10.0,ENE,8.1,-,N/A,,Clear,60,2014-02-14 22:35:00
4:55 PM,55.6,19.0,24,30.07,10.0,East,9.2,-,N/A,,Clear,80,2014-02-14 22:55:00
5:15 PM,53.6,18.7,25,30.08,10.0,East,8.1,-,N/A,,Clear,100,2014-02-14 23:15:00
5:35 PM,52.7,18.5,26,30.08,10.0,East,9.2,-,N/A,,Clear,90,2014-02-14 23:35:00
5:55 PM,50.9,18.5,28,30.08,10.0,East,5.8,-,N/A,,Clear,90,2014-02-14 23:55:00
6:15 PM,49.1,18.1,29,30.09,10.0,East,3.5,-,N/A,,Clear,90,2014-02-15 00:15:00
6:35 PM,47.7,18.3,31,30.10,10.0,Calm,Calm,-,N/A,,Clear,0,2014-02-15 00:35:00
6:55 PM,47.3,18.3,32,30.10,10.0,ESE,3.5,-,N/A,,Clear,110,2014-02-15 00:55:00
7:15 PM,45.3,18.0,34,30.12,10.0,Calm,Calm,-,N/A,,Clear,0,2014-02-15 01:15:00
7:35 PM,41.9,16.2,35,30.11,10.0,North,-9999.0,-,N/A,,Clear,0,2014-02-15 01:35:00
7:55 PM,41.0,18.1,40,30.10,10.0,North,-9999.0,-,N/A,,Clear,0,2014-02-15 01:55:00
8:15 PM,39.6,17.8,41,30.10,10.0,North,-9999.0,-,N/A,,Clear,0,2014-02-15 02:15:00
8:35 PM,40.8,18.3,40,30.10,10.0,North,-9999.0,-,N/A,,Clear,0,2014-02-15 02:35:00
8:55 PM,37.8,19.0,47,30.10,10.0,North,-9999.0,-,N/A,,Clear,0,2014-02-15 02:55:00
9:15 PM,39.2,19.6,45,30.09,10.0,North,-9999.0,-,N/A,,Clear,0,2014-02-15 03:15:00
9:35 PM,41.5,19.2,41,30.09,10.0,North,-9999.0,-,N/A,,Clear,0,2014-02-15 03:35:00
9:55 PM,39.4,18.3,43,30.09,10.0,South,9.2,-,N/A,,Clear,170,2014-02-15 03:55:00
10:15 PM,37.0,18.7,48,30.09,10.0,South,6.9,-,N/A,,Clear,180,2014-02-15 04:15:00
10:35 PM,37.4,17.8,45,30.09,10.0,South,8.1,-,N/A,,Clear,190,2014-02-15 04:35:00
10:55 PM,35.6,17.4,48,30.09,10.0,SSW,6.9,-,N/A,,Clear,200,2014-02-15 04:55:00
11:15 PM,35.4,17.4,48,30.09,10.0,South,6.9,-,N/A,,Clear,190,2014-02-15 05:15:00
11:35 PM,35.8,18.5,50,30.09,10.0,South,6.9,-,N/A,,Clear,190,2014-02-15 05:35:00
11:55 PM,35.1,18.5,51,30.09,10.0,South,6.9,-,N/A,,Clear,180,2014-02-15 05:55:00